Location: Home
(42.5358°N, 72.7383°W)
Time: 09:38:56
(UTC-04:00)

Kosmos-337 - Pass Details

Date: 08 July 2022
Orbit: 1467 x 1552 km, 74.0° (Epoch: 16 August)

Event Time Altitude Azimuth Distance (km) Brightness Sun altitude
Rises 03:11:14 0° 329° (NNW) 4,727 ? -17.9°
Reaches altitude 10° 03:15:01 10° 316° (NW) 3,733 ? -17.5°
Maximum altitude 03:21:26 22° 270° (W) 2,864 ? -16.9°
Enters shadow 03:24:54 18° 241° (WSW) 3,123 ? -16.5°
